Location: Berduj
(43.0019°N, 22.3781°E)
Time: 11:55:20
(UTC+00:00)

Cosmos 2082 Rocket - Pass Details

Date: 19 October 2019
Orbit: 832 x 854 km, 71.0° (Epoch: 16 November)

Event Time Altitude Azimuth Distance (km) Brightness Sun altitude
Rises 16:44:24 0° 341° (NNW) 3,432 5.6 -12.1°
Reaches altitude 10° 16:47:05 10° 350° (N) 2,491 4.7 -12.6°
Maximum altitude 16:52:20 36° 56° (ENE) 1,326 2.8 -13.5°
Enters shadow 16:56:02 18° 114° (ESE) 1,990 3.6 -14.2°
